Dades meteomassalio
Diari Summary for Abril 29, 2017 Units:  English    Metric   Both
« Previous Day
Next Day »
Diari Semanal Mensual Anual Personalitzat
  Maxima: Minima: Mijana:
Temperatura: TemperatureC °F 1.8 °F 10.4 °F
Rosada: DewpointC °F 0.4 °F 5.6 °F
Humitat: Humidity % 49 % 74 %
Velocitat del vent: WindSpeedKMH mph 0.0 mph 6.5 mph
Racha vent: WindSpeedGustKMH mph - -
Vent:- - South
Pressio: PressurehPa in 1012.1 in -
Pluja: 0.5 in    
Historical Graphs
 
 
Tabular Data for Abril 29, 2017
Time Temperature Dew Point Pressure Wind Wind Speed Wind Gust Humidity Rainfall Rate (Hourly) solar Conditions
TemperatureC °F DewpointC °F PressurehPa in Calm     Humidity % HourlyPrecipMM in SolarRadiationWatts/m^2 W/m2 Conditions
00:04 9.2 °F 4.8 °F 1017.2 in Calm     74 % 0.0 in 0.0 W/m2 CLR
00:09 9.1 °F 4.8 °F 1017.2 in Calm     75 % 0.0 in 0.0 W/m2 CLR
00:14 8.9 °F 4.7 °F 1017.2 in Calm     75 % 0.0 in 0.0 W/m2 CLR
00:19 8.8 °F 4.8 °F 1017.2 in Calm     76 % 0.0 in 0.0 W/m2 CLR
00:24 8.8 °F 4.8 °F 1017.2 in Calm     76 % 0.0 in 0.0 W/m2 CLR
00:29 8.7 °F 4.7 °F 1017.2 in Calm     76 % 0.0 in 0.0 W/m2 CLR
00:34 8.7 °F 4.9 °F 1017.2 in Calm     77 % 0.0 in 0.0 W/m2 CLR
00:39 8.7 °F 4.8 °F 1017.2 in Calm     77 % 0.0 in 0.0 W/m2 CLR
00:44 8.6 °F 4.8 °F 1017.2 in Calm     77 % 0.0 in 0.0 W/m2 CLR
00:49 8.6 °F 4.8 °F 1017.2 in Calm     77 % 0.0 in 0.0 W/m2 CLR
00:54 8.5 °F 4.7 °F 1017.2 in Calm     77 % 0.0 in 0.0 W/m2 CLR
00:59 8.4 °F 4.6 °F 1017.2 in Calm     77 % 0.0 in 0.0 W/m2 CLR
01:04 8.2 °F 4.6 °F 1017.2 in Calm     78 % 0.0 in 0.0 W/m2 CLR
01:09 8.1 °F 4.4 °F 1017.2 in Calm     78 % 0.0 in 0.0 W/m2 CLR
01:14 8.0 °F 4.6 °F 1017.2 in Calm     79 % 0.0 in 0.0 W/m2 CLR
01:19 8.0 °F 4.6 °F 1017.2 in Calm     79 % 0.0 in 0.0 W/m2 CLR
01:24 7.8 °F 4.4 °F 1017.2 in Calm     79 % 0.0 in 0.0 W/m2 CLR
01:29 7.6 °F 4.2 °F 1016.8 in Calm     79 % 0.0 in 0.0 W/m2 CLR
01:34 7.4 °F 4.2 °F 1016.8 in Calm     80 % 0.0 in 0.0 W/m2 CLR
01:39 7.3 °F 4.2 °F 1016.8 in Calm     81 % 0.0 in 0.0 W/m2 CLR
01:44 7.1 °F 4.1 °F 1016.8 in Calm     81 % 0.0 in 0.0 W/m2 CLR
01:49 6.9 °F 3.8 °F 1016.8 in Calm     81 % 0.0 in 0.0 W/m2 CLR
01:54 6.7 °F 3.9 °F 1016.8 in Calm     82 % 0.0 in 0.0 W/m2 CLR
01:59 6.5 °F 3.7 °F 1016.8 in Calm     82 % 0.0 in 0.0 W/m2 CLR
02:00 6.5 °F 3.7 °F 1016.8 in Calm     82 % 0.0 in 0.0 W/m2 CLR
02:05 6.3 °F 3.7 °F 1016.8 in Calm     83 % 0.0 in 0.0 W/m2 CLR
02:10 6.2 °F 3.5 °F 1016.8 in Calm     83 % 0.0 in 0.0 W/m2 CLR
02:15 6.1 °F 3.6 °F 1016.8 in Calm     84 % 0.0 in 0.0 W/m2 CLR
02:20 5.9 °F 3.4 °F 1016.8 in Calm     84 % 0.0 in 0.0 W/m2 CLR
02:25 5.8 °F 3.4 °F 1016.8 in Calm     85 % 0.0 in 0.0 W/m2 CLR
02:30 5.7 °F 3.4 °F 1016.8 in Calm     85 % 0.0 in 0.0 W/m2 CLR
02:35 5.7 °F 3.3 °F 1016.8 in Calm     85 % 0.0 in 0.0 W/m2 CLR
02:40 5.6 °F 3.2 °F 1016.8 in Calm     85 % 0.0 in 0.0 W/m2 CLR
02:45 5.4 °F 3.1 °F 1016.8 in Calm     85 % 0.0 in 0.0 W/m2 CLR
02:50 5.3 °F 2.9 °F 1016.8 in Calm     85 % 0.0 in 0.0 W/m2 CLR
02:55 5.1 °F 2.9 °F 1016.8 in Calm     86 % 0.0 in 0.0 W/m2 CLR
03:00 4.9 °F 2.8 °F 1016.5 in Calm     86 % 0.0 in 0.0 W/m2 CLR
03:05 4.9 °F 2.9 °F 1016.8 in Calm     87 % 0.0 in 0.0 W/m2 CLR
03:10 4.9 °F 2.9 °F 1016.5 in Calm     87 % 0.0 in 0.0 W/m2 CLR
03:15 4.8 °F 2.8 °F 1016.5 in Calm     87 % 0.0 in 0.0 W/m2 CLR
03:20 4.7 °F 2.7 °F 1016.5 in Calm     87 % 0.0 in 0.0 W/m2 CLR
03:25 4.6 °F 2.6 °F 1016.5 in Calm     87 % 0.0 in 0.0 W/m2 CLR
03:30 4.5 °F 2.5 °F 1016.5 in Calm     87 % 0.0 in 0.0 W/m2 CLR
03:35 4.4 °F 2.6 °F 1016.5 in Calm     88 % 0.0 in 0.0 W/m2 CLR
03:40 4.4 °F 2.6 °F 1016.5 in Calm     88 % 0.0 in 0.0 W/m2 CLR
03:45 4.3 °F 2.4 °F 1016.5 in Calm     88 % 0.0 in 0.0 W/m2 CLR
03:50 4.2 °F 2.4 °F 1016.5 in Calm     88 % 0.0 in 0.0 W/m2 CLR
03:55 4.2 °F 2.3 °F 1016.5 in Calm     88 % 0.0 in 0.0 W/m2 CLR
04:00 4.1 °F 2.2 °F 1016.5 in Calm     88 % 0.0 in 0.0 W/m2 CLR
04:05 4.0 °F 2.2 °F 1016.5 in Calm     88 % 0.0 in 0.0 W/m2 CLR
04:10 3.9 °F 2.1 °F 1016.5 in Calm     88 % 0.0 in 0.0 W/m2 CLR
04:15 3.9 °F 2.3 °F 1016.5 in Calm     89 % 0.0 in 0.0 W/m2 CLR
04:20 3.8 °F 2.0 °F 1016.5 in Calm     88 % 0.0 in 0.0 W/m2 CLR
04:25 3.8 °F 2.1 °F 1016.5 in Calm     89 % 0.0 in 0.0 W/m2 CLR
04:30 3.7 °F 2.0 °F 1016.5 in Calm     89 % 0.0 in 0.0 W/m2 CLR
04:35 3.6 °F 1.9 °F 1016.5 in Calm     89 % 0.0 in 0.0 W/m2 CLR
04:40 3.5 °F 1.8 °F 1016.5 in Calm     89 % 0.0 in 0.0 W/m2 CLR
04:45 3.4 °F 1.6 °F 1016.5 in Calm     88 % 0.0 in 0.0 W/m2 CLR
04:50 3.3 °F 1.6 °F 1016.5 in Calm     89 % 0.0 in 0.0 W/m2 CLR
04:55 3.3 °F 1.6 °F 1016.1 in Calm     89 % 0.0 in 0.0 W/m2 CLR
05:00 3.2 °F 1.6 °F 1016.1 in Calm     89 % 0.0 in 0.0 W/m2 CLR
05:05 3.1 °F 1.5 °F 1016.1 in Calm     89 % 0.0 in 0.0 W/m2 CLR
05:10 3.1 °F 1.5 °F 1016.1 in Calm     89 % 0.0 in 0.0 W/m2 CLR
05:15 3.1 °F 1.4 °F 1016.1 in Calm     89 % 0.0 in 0.0 W/m2 CLR
05:20 3.0 °F 1.4 °F 1016.1 in Calm     89 % 0.0 in 0.0 W/m2 CLR
05:25 2.8 °F 1.2 °F 1016.1 in Calm     89 % 0.0 in 0.0 W/m2 CLR
05:30 2.8 °F 1.3 °F 1016.1 in Calm     90 % 0.0 in 0.0 W/m2 CLR
05:35 2.9 °F 1.4 °F 1016.1 in Calm     90 % 0.0 in 0.0 W/m2 CLR
05:40 2.8 °F 1.3 °F 1016.1 in Calm     90 % 0.0 in 0.0 W/m2 CLR
05:45 2.7 °F 1.2 °F 1016.1 in Calm     90 % 0.0 in 0.0 W/m2 CLR
05:50 2.6 °F 1.1 °F 1016.1 in Calm     90 % 0.0 in 0.0 W/m2 CLR
05:55 2.5 °F 1.0 °F 1016.1 in Calm     90 % 0.0 in 0.0 W/m2 CLR
06:00 2.4 °F 0.9 °F 1016.1 in Calm     90 % 0.0 in 0.0 W/m2 CLR
06:05 2.3 °F 0.8 °F 1016.5 in Calm     90 % 0.0 in 0.0 W/m2 CLR
06:10 2.3 °F 0.8 °F 1016.1 in Calm     90 % 0.0 in 0.0 W/m2 CLR
06:16 2.3 °F 0.8 °F 1016.1 in Calm     90 % 0.0 in 0.0 W/m2 CLR
06:21 2.2 °F 0.8 °F 1016.5 in Calm     90 % 0.0 in 0.0 W/m2 CLR
06:26 2.2 °F 0.7 °F 1016.5 in Calm     90 % 0.0 in 0.0 W/m2 CLR
06:31 2.1 °F 0.7 °F 1016.5 in Calm     90 % 0.0 in 0.0 W/m2 CLR
06:36 2.1 °F 0.6 °F 1016.5 in Calm     90 % 0.0 in 0.0 W/m2 CLR
06:41 1.9 °F 0.5 °F 1016.5 in Calm     90 % 0.0 in 0.0 W/m2 CLR
06:46 1.9 °F 0.4 °F 1016.5 in Calm     90 % 0.0 in 0.0 W/m2 CLR
06:51 1.8 °F 0.4 °F 1016.5 in Calm     90 % 0.0 in 0.0 W/m2 CLR
06:56 1.8 °F 0.5 °F 1016.5 in Calm     91 % 0.0 in 0.0 W/m2 CLR
07:01 1.9 °F 0.6 °F 1016.5 in Calm     91 % 0.0 in 5.0 W/m2 OVC
07:06 1.9 °F 0.6 °F 1016.5 in Calm     91 % 0.0 in 7.0 W/m2 BKN
07:11 1.8 °F 0.4 °F 1016.5 in Calm     91 % 0.0 in 11.0 W/m2 BKN
07:16 1.8 °F 0.4 °F 1016.5 in Calm     91 % 0.0 in 12.0 W/m2 BKN
07:21 1.8 °F 0.5 °F 1016.5 in Calm     91 % 0.0 in 16.0 W/m2 BKN
07:26 2.0 °F 0.7 °F 1016.5 in Calm     91 % 0.0 in 19.0 W/m2 BKN
07:31 2.1 °F 0.8 °F 1016.5 in Calm     91 % 0.0 in 26.0 W/m2 BKN
07:36 2.1 °F 0.8 °F 1016.5 in Calm     91 % 0.0 in 32.0 W/m2 BKN
07:41 2.3 °F 0.9 °F 1016.5 in Calm     91 % 0.0 in 46.0 W/m2 SCT
07:46 2.4 °F 1.1 °F 1016.5 in Calm     91 % 0.0 in 44.0 W/m2 BKN
07:51 2.5 °F 1.2 °F 1016.5 in Calm     91 % 0.0 in 67.0 W/m2 FEW
07:56 2.8 °F 1.5 °F 1016.5 in Calm     91 % 0.0 in 86.0 W/m2 CLR
08:01 3.1 °F 1.8 °F 1016.5 in Calm     91 % 0.0 in 102.0 W/m2 FEW
08:06 3.5 °F 2.2 °F 1016.5 in Calm     91 % 0.0 in 121.0 W/m2 CLR
08:11 3.8 °F 2.3 °F 1016.5 in Calm     90 % 0.0 in 137.0 W/m2 CLR
08:16 4.1 °F 2.6 °F 1016.5 in Calm     90 % 0.0 in 155.0 W/m2 CLR
08:21 4.6 °F 3.1 °F 1016.5 in Calm     90 % 0.0 in 174.0 W/m2 CLR
08:26 5.1 °F 3.4 °F 1016.5 in Calm     89 % 0.0 in 193.0 W/m2 CLR
08:31 5.3 °F 3.5 °F 1016.5 in Calm     88 % 0.0 in 214.0 W/m2 CLR
08:36 5.7 °F 3.9 °F 1016.5 in Calm     88 % 0.0 in 220.0 W/m2 CLR
08:41 6.3 °F 4.3 °F 1016.5 in Calm     87 % 0.0 in 199.0 W/m2 CLR
08:46 7.0 °F 4.8 °F 1016.5 in Calm     86 % 0.0 in 264.0 W/m2 CLR
08:51 7.5 °F 4.8 °F 1016.5 in Calm     83 % 0.0 in 285.0 W/m2 CLR
08:56 7.9 °F 5.1 °F 1016.5 in Calm     82 % 0.0 in 301.0 W/m2 CLR
09:01 8.4 °F 5.3 °F 1016.1 in Calm     81 % 0.0 in 272.0 W/m2 CLR
09:06 8.9 °F 5.4 °F 1016.1 in Calm     79 % 0.0 in 345.0 W/m2 CLR
09:16 9.7 °F 5.9 °F 1016.1 in Calm     77 % 0.0 in 376.0 W/m2 CLR
09:19 10.1 °F 6.0 °F 1016.1 in Calm     76 % 0.0 in 336.0 W/m2 CLR
09:24 10.7 °F 6.1 °F 1016.1 in Calm     73 % 0.0 in 120.0 W/m2 CLR
09:29 11.2 °F 6.2 °F 1015.8 in Calm     71 % 0.0 in 388.0 W/m2 CLR
09:34 11.6 °F 6.5 °F 1015.8 in Calm     71 % 0.0 in 371.0 W/m2 CLR
09:39 11.9 °F 6.6 °F 1015.8 in Calm     70 % 0.0 in 439.0 W/m2 CLR
09:44 12.1 °F 6.6 °F 1015.8 in Calm     69 % 0.0 in 466.0 W/m2 CLR
09:49 12.3 °F 6.6 °F 1015.8 in Calm     68 % 0.0 in 508.0 W/m2 CLR
09:54 12.6 °F 6.6 °F 1015.8 in Calm     67 % 0.0 in 564.0 W/m2 CLR
09:59 12.9 °F 6.4 °F 1015.5 in Calm     65 % 0.0 in 557.0 W/m2 CLR
10:04 13.2 °F 6.3 °F 1015.5 in Calm     63 % 0.0 in 520.0 W/m2 CLR
10:09 13.5 °F 6.1 °F 1015.5 in Calm     61 % 0.0 in 355.0 W/m2 CLR
10:14 13.7 °F 5.8 °F 1015.5 in ESE 7.4 mph 7.4 mph 59 % 0.0 in 186.0 W/m2 CLR
10:19 13.7 °F 5.8 °F 1015.5 in SE 7.4 mph 7.4 mph 59 % 0.0 in 605.0 W/m2 CLR
10:24 14.1 °F 5.9 °F 1015.5 in South 9.3 mph 9.3 mph 58 % 0.0 in 577.0 W/m2 CLR
10:29 14.7 °F 6.0 °F 1015.5 in Calm     56 % 0.0 in 589.0 W/m2 CLR
10:34 14.9 °F 6.2 °F 1015.5 in ENE 3.7 mph 3.7 mph 56 % 0.0 in 584.0 W/m2 CLR
10:39 15.0 °F 6.3 °F 1015.5 in ESE 9.7 mph 9.7 mph 56 % 0.0 in 619.0 W/m2 CLR
10:44 14.9 °F 6.2 °F 1015.5 in East 5.6 mph 5.6 mph 56 % 0.0 in 652.0 W/m2 CLR
10:49 15.0 °F 6.3 °F 1015.1 in East 5.6 mph 5.6 mph 56 % 0.0 in 710.0 W/m2 CLR
10:54 15.2 °F 5.9 °F 1015.1 in ENE 9.3 mph 9.3 mph 54 % 0.0 in 729.0 W/m2 CLR
10:59 15.6 °F 6.8 °F 1015.1 in SE 16.1 mph 16.1 mph 56 % 0.0 in 675.0 W/m2 CLR
11:04 15.4 °F 6.4 °F 1015.1 in ESE 9.3 mph 9.3 mph 55 % 0.0 in 552.0 W/m2 CLR
11:09 15.4 °F 6.1 °F 1015.1 in East 13.0 mph 13.0 mph 54 % 0.0 in 540.0 W/m2 CLR
11:14 15.8 °F 5.7 °F 1015.1 in SE 11.1 mph 11.1 mph 51 % 0.0 in 884.0 W/m2 CLR
11:19 16.1 °F 5.6 °F 1015.1 in SE 14.8 mph 14.8 mph 50 % 0.0 in 953.0 W/m2 CLR
11:24 16.4 °F 5.7 °F 1014.8 in SSW 20.9 mph 20.9 mph 49 % 0.0 in 244.0 W/m2 CLR
11:29 15.9 °F 5.4 °F 1014.8 in WSW 9.3 mph 9.3 mph 50 % 0.0 in 274.0 W/m2 CLR
11:34 16.0 °F 5.6 °F 1014.8 in West 11.1 mph 11.1 mph 50 % 0.0 in 1025.0 W/m2 CLR
11:39 16.4 °F 5.7 °F 1014.8 in SSE 17.7 mph 17.7 mph 49 % 0.0 in 1025.0 W/m2 CLR
11:44 16.3 °F 5.6 °F 1014.8 in SSW 18.5 mph 18.5 mph 49 % 0.0 in 380.0 W/m2 CLR
11:49 16.0 °F 5.6 °F 1014.8 in ESE 13.0 mph 13.0 mph 50 % 0.0 in 360.0 W/m2 CLR
11:54 16.0 °F 5.8 °F 1014.8 in SSW 8.0 mph 8.0 mph 51 % 0.0 in 524.0 W/m2 CLR
11:59 16.0 °F 5.8 °F 1014.8 in SSW 14.5 mph 14.5 mph 51 % 0.0 in 418.0 W/m2 CLR
12:04 16.1 °F 5.6 °F 1014.8 in South 9.3 mph 9.3 mph 50 % 0.0 in 376.0 W/m2 CLR
12:09 15.8 °F 5.1 °F 1014.8 in SW 20.4 mph 20.4 mph 49 % 0.0 in 378.0 W/m2 CLR
12:14 15.6 °F 5.2 °F 1014.8 in SW 18.5 mph 18.5 mph 50 % 0.0 in 445.0 W/m2 CLR
12:19 15.6 °F 5.5 °F 1014.8 in SSE 14.8 mph 14.8 mph 51 % 0.0 in 459.0 W/m2 CLR
12:24 15.7 °F 5.6 °F 1014.4 in SW 20.9 mph 20.9 mph 51 % 0.0 in 480.0 W/m2 CLR
12:29 15.6 °F 5.8 °F 1014.4 in SSW 24.1 mph 24.1 mph 52 % 0.0 in 559.0 W/m2 CLR
12:34 15.6 °F 5.4 °F 1014.8 in South 16.7 mph 16.7 mph 51 % 0.0 in 564.0 W/m2 CLR
12:39 15.6 °F 5.8 °F 1014.4 in South 17.7 mph 17.7 mph 52 % 0.0 in 617.0 W/m2 CLR
12:44 15.9 °F 5.8 °F 1014.4 in South 18.5 mph 18.5 mph 51 % 0.0 in 613.0 W/m2 CLR
12:49 15.8 °F 5.7 °F 1014.4 in SSW 14.8 mph 14.8 mph 51 % 0.0 in 364.0 W/m2 CLR
12:54 15.9 °F 6.3 °F 1014.4 in South 24.1 mph 24.1 mph 53 % 0.0 in 339.0 W/m2 CLR
12:59 15.5 °F 5.9 °F 1014.4 in South 24.1 mph 24.1 mph 53 % 0.0 in 279.0 W/m2 CLR
13:04 15.1 °F 6.1 °F 1014.4 in SSW 18.5 mph 18.5 mph 55 % 0.0 in 320.0 W/m2 CLR
13:09 15.1 °F 6.1 °F 1014.4 in SW 24.1 mph 24.1 mph 55 % 0.0 in 418.0 W/m2 CLR
13:15 15.2 °F 6.2 °F 1014.1 in South 17.7 mph 17.7 mph 55 % 0.0 in 554.0 W/m2 CLR
13:19 15.4 °F 6.7 °F 1014.4 in SE 18.5 mph 18.5 mph 56 % 0.0 in 594.0 W/m2 CLR
13:25 15.6 °F 6.6 °F 1014.1 in SSE 24.1 mph 24.1 mph 55 % 0.0 in 710.0 W/m2 CLR
13:26 15.4 °F 6.4 °F 1014.1 in SE 20.4 mph 20.4 mph 55 % 0.0 in 710.0 W/m2 CLR
13:31 15.5 °F 6.8 °F 1014.1 in SSE 16.7 mph 16.7 mph 56 % 0.0 in 603.0 W/m2 CLR
13:36 15.5 °F 6.8 °F 1014.1 in SSE 18.5 mph 18.5 mph 56 % 0.0 in 543.0 W/m2 CLR
13:41 15.6 °F 6.8 °F 1013.8 in South 24.1 mph 24.1 mph 56 % 0.0 in 603.0 W/m2 CLR
13:46 15.7 °F 6.9 °F 1013.8 in SE 22.2 mph 22.2 mph 56 % 0.0 in 838.0 W/m2 CLR
13:51 15.5 °F 6.8 °F 1013.8 in SSE 18.5 mph 18.5 mph 56 % 0.0 in 476.0 W/m2 CLR
13:56 15.5 °F 6.8 °F 1013.8 in South 18.5 mph 18.5 mph 56 % 0.0 in 522.0 W/m2 CLR
14:01 15.6 °F 6.8 °F 1013.8 in SSE 20.4 mph 20.4 mph 56 % 0.0 in 519.0 W/m2 CLR
14:06 15.6 °F 7.1 °F 1013.8 in South 24.1 mph 24.1 mph 57 % 0.0 in 425.0 W/m2 CLR
14:11 15.2 °F 6.7 °F 1013.8 in South 14.8 mph 14.8 mph 57 % 0.0 in 320.0 W/m2 CLR
14:16 15.1 °F 6.9 °F 1013.8 in SSE 16.7 mph 16.7 mph 58 % 0.0 in 350.0 W/m2 CLR
14:21 15.2 °F 6.9 °F 1013.4 in WSW 11.3 mph 11.3 mph 58 % 0.0 in 397.0 W/m2 CLR
14:26 15.4 °F 7.2 °F 1013.4 in SSW 16.7 mph 16.7 mph 58 % 0.0 in 415.0 W/m2 CLR
14:31 15.3 °F 7.3 °F 1013.4 in SSE 22.2 mph 22.2 mph 59 % 0.0 in 487.0 W/m2 CLR
14:36 15.1 °F 7.3 °F 1013.4 in SSE 18.5 mph 18.5 mph 60 % 0.0 in 431.0 W/m2 CLR
14:41 15.0 °F 7.6 °F 1013.4 in SSE 14.5 mph 14.5 mph 61 % 0.0 in 450.0 W/m2 CLR
14:46 15.2 °F 8.0 °F 1013.4 in South 13.0 mph 13.0 mph 62 % 0.0 in 664.0 W/m2 CLR
14:51 15.6 °F 7.8 °F 1013.4 in South 12.9 mph 12.9 mph 60 % 0.0 in 459.0 W/m2 CLR
14:56 15.2 °F 7.5 °F 1013.4 in SE 16.1 mph 16.1 mph 60 % 0.0 in 399.0 W/m2 CLR
15:01 15.3 °F 7.3 °F 1013.4 in South 13.0 mph 13.0 mph 59 % 0.0 in 487.0 W/m2 CLR
15:06 15.4 °F 7.4 °F 1013.4 in South 20.4 mph 20.4 mph 59 % 0.0 in 434.0 W/m2 CLR
15:11 15.6 °F 7.6 °F 1013.4 in SE 18.5 mph 18.5 mph 59 % 0.0 in 443.0 W/m2 CLR
15:16 15.6 °F 7.3 °F 1013.4 in East 18.5 mph 18.5 mph 58 % 0.0 in 448.0 W/m2 CLR
15:21 15.6 °F 7.4 °F 1013.1 in SE 17.7 mph 17.7 mph 58 % 0.0 in 515.0 W/m2 CLR
15:26 15.7 °F 7.2 °F 1013.1 in SE 20.4 mph 20.4 mph 57 % 0.0 in 450.0 W/m2 CLR
15:31 15.7 °F 7.5 °F 1013.1 in SE 19.3 mph 19.3 mph 58 % 0.0 in 343.0 W/m2 CLR
15:36 15.8 °F 7.3 °F 1013.1 in SSE 16.7 mph 16.7 mph 57 % 0.0 in 424.0 W/m2 CLR
15:41 15.9 °F 7.4 °F 1013.1 in SE 18.5 mph 18.5 mph 57 % 0.0 in 401.0 W/m2 CLR
15:46 16.1 °F 7.0 °F 1013.1 in SSE 18.5 mph 18.5 mph 55 % 0.0 in 404.0 W/m2 CLR
15:51 16.1 °F 7.1 °F 1013.1 in SSW 18.5 mph 18.5 mph 55 % 0.0 in 492.0 W/m2 CLR
15:56 16.2 °F 7.4 °F 1012.8 in South 11.1 mph 11.1 mph 56 % 0.0 in 566.0 W/m2 CLR
16:01 16.2 °F 6.8 °F 1012.8 in SSE 18.5 mph 18.5 mph 54 % 0.0 in 427.0 W/m2 CLR
16:06 16.2 °F 7.2 °F 1012.8 in SSW 24.1 mph 24.1 mph 55 % 0.0 in 302.0 W/m2 CLR
16:11 16.1 °F 6.7 °F 1012.8 in SSW 20.9 mph 20.9 mph 54 % 0.0 in 290.0 W/m2 CLR
16:16 16.0 °F 6.7 °F 1012.8 in SSW 18.5 mph 18.5 mph 54 % 0.0 in 394.0 W/m2 CLR
16:17 16.0 °F 6.7 °F 1012.8 in South 24.1 mph 24.1 mph 54 % 0.0 in 394.0 W/m2 CLR
16:22 16.1 °F 7.0 °F 1012.8 in SSW 22.2 mph 22.2 mph 55 % 0.0 in 534.0 W/m2 CLR
16:27 15.9 °F 6.9 °F 1012.8 in SSW 16.1 mph 16.1 mph 55 % 0.0 in 410.0 W/m2 CLR
16:32 15.8 °F 7.1 °F 1012.8 in South 19.3 mph 19.3 mph 56 % 0.0 in 346.0 W/m2 CLR
16:37 15.6 °F 6.8 °F 1012.8 in South 22.2 mph 22.2 mph 56 % 0.0 in 475.0 W/m2 CLR
16:42 15.6 °F 7.1 °F 1012.8 in SW 16.7 mph 16.7 mph 57 % 0.0 in 276.0 W/m2 CLR
16:47 15.4 °F 6.9 °F 1012.8 in South 22.2 mph 22.2 mph 57 % 0.0 in 234.0 W/m2 CLR
16:53 15.3 °F 7.1 °F 1012.8 in South 24.1 mph 24.1 mph 58 % 0.0 in 330.0 W/m2 CLR
16:58 15.3 °F 7.1 °F 1012.8 in South 22.2 mph 22.2 mph 58 % 0.0 in 260.0 W/m2 CLR
17:03 15.2 °F 7.0 °F 1012.8 in South 14.8 mph 14.8 mph 58 % 0.0 in 188.0 W/m2 CLR
17:08 15.1 °F 7.1 °F 1012.8 in SW 16.7 mph 16.7 mph 59 % 0.0 in 171.0 W/m2 CLR
17:13 15.1 °F 7.2 °F 1012.8 in South 16.7 mph 16.7 mph 59 % 0.0 in 135.0 W/m2 CLR
17:18 15.1 °F 7.2 °F 1012.8 in SSW 20.4 mph 20.4 mph 59 % 0.0 in 120.0 W/m2 CLR
17:23 15.0 °F 7.3 °F 1012.8 in SSW 9.3 mph 9.3 mph 60 % 0.0 in 86.0 W/m2 CLR
17:28 14.8 °F 7.1 °F 1012.8 in SSW 24.1 mph 24.1 mph 60 % 0.0 in 84.0 W/m2 CLR
17:33 14.8 °F 7.1 °F 1012.8 in SSW 24.1 mph 24.1 mph 60 % 0.0 in 100.0 W/m2 CLR
17:34 14.8 °F 7.1 °F 1012.8 in South 25.9 mph 25.9 mph 60 % 0.0 in 100.0 W/m2 CLR
17:39 14.7 °F 7.1 °F 1012.4 in South 20.4 mph 20.4 mph 60 % 0.0 in 90.0 W/m2 CLR
17:44 14.7 °F 7.1 °F 1012.4 in South 24.1 mph 24.1 mph 60 % 0.0 in 104.0 W/m2 CLR
17:49 14.7 °F 7.2 °F 1012.4 in SW 13.0 mph 13.0 mph 61 % 0.0 in 114.0 W/m2 CLR
17:54 14.7 °F 7.3 °F 1012.4 in SW 18.5 mph 18.5 mph 61 % 0.0 in 123.0 W/m2 CLR
17:59 14.7 °F 7.3 °F 1012.4 in SSW 18.5 mph 18.5 mph 61 % 0.0 in 102.0 W/m2 CLR
18:04 14.7 °F 7.3 °F 1012.4 in South 20.4 mph 20.4 mph 61 % 0.0 in 97.0 W/m2 CLR
18:09 14.6 °F 7.2 °F 1012.4 in SSW 20.4 mph 20.4 mph 61 % 0.0 in 91.0 W/m2 CLR
18:14 14.6 °F 7.3 °F 1012.4 in SW 11.1 mph 11.1 mph 62 % 0.0 in 84.0 W/m2 CLR
18:19 14.5 °F 7.8 °F 1012.4 in SSW 13.0 mph 13.0 mph 64 % 0.0 in 91.0 W/m2 CLR
18:24 14.3 °F 7.8 °F 1012.4 in SSW 14.8 mph 14.8 mph 65 % 0.0 in 97.0 W/m2 CLR
18:29 14.1 °F 7.6 °F 1012.4 in SW 18.5 mph 18.5 mph 65 % 0.0 in 102.0 W/m2 CLR
18:34 14.0 °F 8.2 °F 1012.4 in South 18.5 mph 18.5 mph 68 % 0.0 in 100.0 W/m2 CLR
18:39 13.7 °F 8.1 °F 1012.4 in South 18.5 mph 18.5 mph 69 % 0.0 in 81.0 W/m2 CLR
18:44 13.6 °F 8.7 °F 1012.4 in South 5.6 mph 5.6 mph 72 % 0.0 in 76.0 W/m2 FEW
18:49 13.6 °F 8.6 °F 1012.4 in South 5.6 mph 5.6 mph 72 % 0.0 in 67.0 W/m2 FEW
18:54 13.6 °F 9.0 °F 1012.4 in Calm     74 % 0.0 in 47.0 W/m2 SCT
18:59 13.5 °F 8.8 °F 1012.4 in South 5.6 mph 5.6 mph 73 % 0.0 in 46.0 W/m2 SCT
19:04 13.5 °F 8.9 °F 1012.4 in South 8.0 mph 8.0 mph 74 % 0.0 in 46.0 W/m2 SCT
19:09 13.5 °F 8.9 °F 1012.4 in SSW 5.6 mph 5.6 mph 74 % 0.0 in 42.0 W/m2 SCT
19:14 13.4 °F 9.1 °F 1012.4 in SSE 4.8 mph 4.8 mph 75 % 0.3 in 40.0 W/m2 RA
19:19 13.3 °F 9.3 °F 1012.1 in South 5.6 mph 5.6 mph 77 % 0.3 in 49.0 W/m2 BKN
19:24 13.2 °F 9.2 °F 1012.4 in South 7.4 mph 7.4 mph 77 % 0.3 in 51.0 W/m2 SCT
19:29 13.1 °F 9.1 °F 1012.4 in South 8.0 mph 8.0 mph 77 % 0.3 in 51.0 W/m2 SCT
19:34 12.9 °F 9.2 °F 1012.4 in SSE 5.6 mph 5.6 mph 78 % 0.3 in 46.0 W/m2 SCT
19:39 12.9 °F 9.3 °F 1012.4 in South 5.6 mph 5.6 mph 79 % 0.3 in 35.0 W/m2 SCT
19:44 12.8 °F 9.4 °F 1012.4 in SSE 7.4 mph 7.4 mph 80 % 0.5 in 26.0 W/m2 RA
19:49 12.6 °F 9.4 °F 1012.4 in South 9.7 mph 9.7 mph 81 % 0.5 in 18.0 W/m2 BKN
19:54 12.5 °F 9.5 °F 1012.4 in South 5.6 mph 5.6 mph 82 % 0.5 in 16.0 W/m2 BKN
19:59 12.4 °F 9.6 °F 1012.4 in SSW 9.3 mph 9.3 mph 83 % 0.5 in 16.0 W/m2 BKN
20:04 12.3 °F 9.5 °F 1012.8 in Calm     83 % 0.5 in 14.0 W/m2 RA
20:09 12.2 °F 9.4 °F 1012.4 in SSE 9.3 mph 9.3 mph 83 % 0.5 in 16.0 W/m2 BKN
20:14 12.1 °F 9.5 °F 1012.4 in Calm     84 % 0.5 in 18.0 W/m2 BKN
20:20 12.1 °F 9.4 °F 1012.4 in SE 3.7 mph   84 % 0.5 in 21.0 W/m2 BKN
20:25 12.0 °F 9.6 °F 1012.8 in SE 5.6 mph 5.6 mph 85 % 0.5 in 30.0 W/m2 BKN
20:30 12.1 °F 9.6 °F 1012.8 in Calm     85 % 0.5 in 39.0 W/m2 BKN
20:35 12.1 °F 9.6 °F 1012.8 in SE 5.6 mph 5.6 mph 85 % 0.5 in 33.0 W/m2 BKN
20:40 12.0 °F 9.6 °F 1012.8 in Calm     85 % 0.5 in 23.0 W/m2 BKN
20:45 11.9 °F 9.5 °F 1012.8 in Calm     85 % 0.3 in 14.0 W/m2 BKN
20:50 11.9 °F 9.7 °F 1012.8 in Calm     86 % 0.3 in 9.0 W/m2 BKN
20:55 11.9 °F 9.6 °F 1012.8 in Calm     86 % 0.3 in 5.0 W/m2 OVC
21:00 11.8 °F 9.6 °F 1012.8 in Calm     86 % 0.3 in 0.0 W/m2 OVC
21:05 11.8 °F 9.5 °F 1012.8 in Calm     86 % 0.0 in 0.0 W/m2 CLR
21:10 11.8 °F 9.5 °F 1012.8 in Calm     86 % 0.0 in 0.0 W/m2 CLR
21:15 11.8 °F 9.3 °F 1012.8 in Calm     85 % 0.0 in 0.0 W/m2 CLR
21:20 11.7 °F 9.3 °F 1012.8 in Calm     85 % 0.0 in 0.0 W/m2 CLR
21:25 11.7 °F 9.3 °F 1012.8 in Calm     85 % 0.0 in 0.0 W/m2 CLR
21:30 11.7 °F 9.4 °F 1012.8 in Calm     86 % 0.0 in 0.0 W/m2 CLR
21:35 11.6 °F 9.1 °F 1012.8 in Calm     85 % 0.0 in 0.0 W/m2 CLR
21:40 11.5 °F 9.1 °F 1012.8 in Calm     85 % 0.0 in 0.0 W/m2 CLR
21:45 11.4 °F 8.9 °F 1012.8 in Calm     85 % 0.0 in 0.0 W/m2 CLR
21:50 11.3 °F 8.7 °F 1013.1 in Calm     84 % 0.0 in 0.0 W/m2 CLR
21:55 11.1 °F 8.6 °F 1013.1 in Calm     85 % 0.0 in 0.0 W/m2 CLR
22:00 11.0 °F 8.7 °F 1012.8 in Calm     86 % 0.0 in 0.0 W/m2 CLR
22:05 11.0 °F 8.7 °F 1013.1 in Calm     86 % 0.0 in 0.0 W/m2 CLR
22:10 10.9 °F 8.7 °F 1013.1 in Calm     86 % 0.0 in 0.0 W/m2 CLR
22:15 10.9 °F 8.7 °F 1013.1 in Calm     86 % 0.0 in 0.0 W/m2 CLR
22:20 10.9 °F 8.8 °F 1013.4 in Calm     87 % 0.0 in 0.0 W/m2 CLR
22:25 10.8 °F 8.7 °F 1013.1 in Calm     87 % 0.0 in 0.0 W/m2 CLR
22:30 10.7 °F 8.7 °F 1013.1 in Calm     87 % 0.0 in 0.0 W/m2 CLR
22:35 10.6 °F 8.6 °F 1013.1 in Calm     87 % 0.0 in 0.0 W/m2 CLR
22:40 10.6 °F 8.5 °F 1013.4 in Calm     87 % 0.0 in 0.0 W/m2 CLR
22:45 10.4 °F 8.4 °F 1013.1 in Calm     87 % 0.0 in 0.0 W/m2 CLR
22:50 10.4 °F 8.3 °F 1013.4 in Calm     87 % 0.0 in 0.0 W/m2 CLR
22:55 10.3 °F 8.2 °F 1013.4 in Calm     87 % 0.0 in 0.0 W/m2 CLR
23:00 10.2 °F 8.1 °F 1013.4 in Calm     87 % 0.0 in 0.0 W/m2 CLR
23:05 10.3 °F 8.2 °F 1013.1 in Calm     87 % 0.0 in 0.0 W/m2 CLR
23:10 10.3 °F 8.1 °F 1013.1 in Calm     86 % 0.0 in 0.0 W/m2 CLR
23:15 10.3 °F 8.1 °F 1013.1 in Calm     86 % 0.0 in 0.0 W/m2 CLR
23:20 10.3 °F 8.1 °F 1013.1 in Calm     86 % 0.0 in 0.0 W/m2 CLR
23:25 10.2 °F 7.8 °F 1013.1 in Calm     85 % 0.0 in 0.0 W/m2 CLR
23:30 10.2 °F 7.8 °F 1013.1 in Calm     85 % 0.0 in 0.0 W/m2 CLR
23:35 10.1 °F 7.9 °F 1013.1 in Calm     86 % 0.0 in 0.0 W/m2 CLR
23:40 10.1 °F 7.8 °F 1013.4 in Calm     86 % 0.0 in 0.0 W/m2 CLR
23:45 10.0 °F 7.6 °F 1013.4 in Calm     85 % 0.0 in 0.0 W/m2 CLR
23:50 9.9 °F 7.7 °F 1013.1 in Calm     86 % 0.0 in 0.0 W/m2 CLR
23:55 9.7 °F 7.4 °F 1013.1 in ENE 5.6 mph 5.6 mph 86 % 0.0 in 0.0 W/m2 CLR
Lo Temps de Massalio
Compliments of Weather Underground - 1.25 mb